Theta_e
307 307 307 307 307 307 307 307 307 307 307 308 309 309 309 308 308 309 310 311 311 311 311 310 311 311 310 311 311 311 311 311 312 313 315 315 314 313 313 313 314 314 314 314 314 315 315 316 315 315 316 316 318 318 318 317 316 321 329 329 322 319 318 317 320 322 321 319 317 316 316 317 317 317 316 316 316 315 315 314 314 314 314 313 313 313 313 313
307 307 307 307 307 307 307 307 307 307 307 307 307 308 307 308 308 309 310 311 311 310 310 310 310 311 310 311 311 311 311 311 312 316 315 314 313 313 313 314 314 314 314 315 315 315 316 316 315 315 316 316 317 318 319 319 317 321 330 327 320 319 318 316 318 317 318 318 316 317 316 317 317 317 317 316 314 315 316 314 313 314 314 313 312 312 313 312
308 307 307 307 307 307 307 307 307 307 307 307 307 307 307 308 309 309 310 310 310 310 310 310 310 310 310 311 311 311 311 312 315 317 314 313 314 313 314 314 314 314 314 315 315 315 315 315 315 315 315 316 316 317 318 319 318 318 326 327 318 317 316 315 317 316 317 317 316 317 316 316 317 316 316 316 314 315 316 314 313 314 314 313 312 312 312 312
309 309 308 308 308 308 308 308 308 308 308 308 308 308 308 308 308 309 309 309 310 310 310 310 310 310 311 310 311 311 312 316 317 315 313 313 314 314 314 314 314 314 314 314 316 315 315 315 315 315 315 316 315 316 317 318 318 318 323 324 316 315 316 316 317 316 317 316 316 317 316 316 316 316 316 315 316 316 315 314 315 315 315 314 313 312 312 312
311 311 310 310 309 309 308 308 308 308 308 308 308 308 308 308 308 309 309 309 309 310 310 310 310 310 310 310 311 311 313 319 317 313 314 313 313 314 314 314 314 314 313 315 316 315 315 315 315 316 316 315 316 317 317 317 318 318 319 318 316 316 317 317 317 316 316 316 316 316 315 316 316 316 316 315 318 318 315 314 315 315 315 314 313 312 312 312
310 310 310 310 311 310 310 310 309 308 308 308 308 308 308 308 308 309 308 309 309 309 310 310 310 310 310 311 311 311 314 318 315 313 314 313 313 314 313 314 314 313 314 315 316 316 316 316 315 316 316 315 316 318 318 317 318 320 318 316 317 316 317 317 317 316 315 316 316 315 316 316 315 316 316 315 316 317 315 314 314 314 314 313 313 312 311 312
309 309 309 309 310 310 310 311 311 310 310 309 308 308 308 308 308 309 309 309 309 309 309 310 310 310 311 310 311 314 315 315 314 314 314 313 313 313 313 313 313 313 314 315 316 317 315 316 316 315 316 316 317 317 317 317 317 321 319 316 317 317 317 317 317 316 315 315 316 315 316 316 316 316 315 315 315 316 315 314 312 312 312 312 312 312 311 312
308 308 308 308 309 309 309 310 310 310 311 310 310 309 309 309 309 309 309 309 309 309 309 309 310 310 310 310 312 314 314 315 315 314 313 313 313 313 314 314 314 314 315 316 317 317 316 316 316 316 317 317 317 316 317 318 317 319 319 317 317 317 317 317 317 317 316 315 315 315 315 315 316 315 315 315 315 315 314 313 311 311 311 311 311 311 311 312
308 308 308 308 308 308 308 309 309 309 309 310 310 310 310 309 309 309 309 309 309 309 309 309 310 310 310 311 312 313 316 318 316 314 314 313 314 315 315 316 316 316 316 318 317 317 316 316 316 317 317 317 318 316 316 319 319 317 317 316 317 317 317 317 317 316 316 316 316 315 315 315 316 315 315 314 314 314 313 312 311 311 310 311 311 311 311 312
307 307 308 308 308 308 309 308 308 308 308 309 309 310 311 310 310 310 309 309 309 309 309 310 310 310 310 311 314 315 318 319 316 315 315 315 316 316 317 318 318 318 318 319 317 316 316 317 316 316 317 317 317 316 316 319 318 316 316 316 316 317 317 316 316 316 316 316 316 316 315 316 315 315 315 314 313 313 312 311 311 311 310 311 311 311 311 311
307 307 307 308 308 308 309 308 308 309 308 308 308 309 310 310 310 310 310 310 310 309 310 310 310 310 310 311 313 316 318 319 316 315 315 315 315 315 317 318 319 320 319 319 318 317 317 316 316 317 318 317 316 317 316 316 316 316 316 317 317 316 317 316 316 316 316 316 316 316 315 314 313 315 316 314 313 312 312 311 310 311 311 311 311 311 311 311
306 307 307 307 307 307 308 308 308 308 308 308 308 308 308 309 310 310 310 310 310 310 310 310 310 310 310 310 311 314 319 319 317 316 315 314 314 315 316 317 319 319 320 320 319 318 317 316 317 318 318 317 317 317 316 316 316 316 316 318 320 318 318 317 315 316 316 316 316 315 316 317 315 314 315 314 313 312 311 311 311 310 311 311 311 311 311 311
307 306 306 306 306 307 308 308 308 308 308 308 308 308 307 308 309 309 310 310 310 310 309 309 309 310 310 311 312 312 315 317 317 316 314 314 314 315 316 317 318 319 319 319 319 319 317 317 317 318 317 317 318 316 317 316 315 318 315 316 321 321 323 319 315 316 316 315 316 315 318 325 321 313 313 314 312 311 310 310 310 310 311 311 310 310 311 311
307 306 306 306 306 307 307 308 308 308 308 308 308 307 307 307 307 308 309 309 309 309 309 309 309 310 310 312 313 313 313 314 314 314 314 314 314 315 316 317 318 318 319 318 318 318 317 317 317 317 317 317 317 316 318 316 316 319 316 319 322 321 328 324 314 316 317 315 315 315 319 325 323 313 311 313 311 311 311 310 310 311 310 310 310 310 310 311
307 307 307 306 307 307 307 307 308 307 307 307 307 307 307 307 307 307 307 308 308 308 308 309 310 311 312 313 313 314 313 314 314 314 314 314 314 315 316 317 318 318 318 318 317 317 317 317 317 317 316 316 317 317 321 321 319 318 318 328 326 319 330 326 313 315 317 314 313 316 319 321 320 313 310 312 311 311 311 310 310 310 310 310 310 310 310 311
307 307 307 307 307 307 307 307 307 307 307 307 307 307 307 307 306 306 306 307 307 308 309 311 312 313 314 314 314 314 314 314 314 314 314 314 314 315 316 317 317 317 317 317 317 317 316 317 316 317 316 317 319 322 327 327 326 323 319 329 329 321 325 323 315 314 315 314 313 315 319 321 318 312 310 311 310 311 311 311 311 310 310 310 310 310 310 310
308 307 307 307 307 307 307 307 307 306 306 307 307 307 307 306 306 306 306 307 307 310 311 313 314 314 314 315 315 315 315 314 314 314 314 315 315 316 317 317 317 317 317 316 316 316 316 316 316 317 316 317 319 324 327 325 328 328 320 321 325 322 322 321 320 315 313 315 314 314 316 319 318 311 310 311 310 311 311 311 311 310 310 310 310 310 310 310
308 308 307 307 307 307 307 307 307 306 307 307 306 307 307 307 307 307 307 308 308 311 312 314 315 313 313 314 314 315 315 315 315 315 316 316 316 316 317 317 317 316 316 316 316 316 316 315 316 319 318 317 318 321 325 325 328 330 325 323 323 323 322 322 322 318 314 316 316 315 315 315 316 312 310 311 310 311 311 311 311 311 311 310 309 309 309 309
310 309 308 307 307 307 307 307 307 307 307 307 307 307 307 307 308 308 309 310 311 312 313 314 313 312 315 315 313 315 315 315 316 316 316 316 316 316 316 316 316 316 315 317 317 315 315 317 319 321 320 319 318 319 323 325 327 329 328 327 326 325 323 322 321 318 315 316 316 316 316 315 315 315 312 310 311 311 311 311 311 311 310 310 309 309 309 309
313 311 309 308 308 308 307 307 307 307 307 307 307 307 308 310 312 312 311 311 311 310 313 315 313 312 315 316 315 316 316 316 316 316 316 317 316 316 316 315 316 315 315 320 320 315 315 320 322 323 322 320 318 317 319 320 322 323 322 324 325 324 323 322 321 317 314 317 319 317 316 316 316 317 313 310 311 310 310 311 310 311 310 310 309 308 309 308
316 314 312 311 309 309 308 307 307 308 308 307 307 308 310 314 315 315 314 313 311 309 310 313 314 314 315 316 316 317 317 317 317 317 316 316 316 316 316 315 316 317 317 318 318 315 316 321 322 322 320 318 318 318 317 318 319 320 320 321 322 323 323 322 320 317 314 317 322 320 318 318 318 319 314 310 310 310 309 310 310 311 310 310 309 308 308 308
318 317 316 315 313 312 310 308 308 308 308 307 308 308 311 316 316 315 315 315 314 312 312 312 313 314 315 316 317 317 317 317 317 317 316 316 315 316 316 316 318 320 318 316 318 318 319 320 319 318 316 316 319 319 318 318 318 320 321 319 322 324 323 322 320 318 315 318 324 325 321 319 319 319 315 310 310 311 311 311 311 311 311 310 309 308 308 308
320 319 319 318 317 316 313 311 309 308 308 308 308 307 311 316 316 315 315 316 316 314 313 315 314 313 314 316 317 317 317 317 318 317 316 315 315 316 315 316 318 319 318 319 321 322 322 324 319 314 316 318 320 320 319 319 319 322 322 320 323 325 322 323 323 318 316 318 321 322 320 318 317 318 317 313 311 311 311 311 311 311 311 310 310 309 308 308
321 320 320 319 318 318 316 313 310 310 310 308 308 307 309 314 316 316 315 315 317 315 312 314 315 314 315 315 316 318 317 317 317 317 316 316 315 316 315 316 317 318 318 318 320 320 322 323 318 315 317 319 319 320 320 320 321 324 325 323 325 325 322 322 322 319 321 322 319 318 321 323 321 319 319 314 310 311 310 311 311 310 311 310 309 309 308 309
321 321 320 320 319 318 316 313 312 312 312 310 310 308 309 312 315 316 314 316 320 319 315 314 315 315 314 315 316 316 317 317 317 317 316 315 316 316 315 315 317 318 318 317 318 318 318 317 317 319 319 319 320 319 321 323 322 323 326 325 323 323 323 322 322 321 326 328 323 319 325 333 331 324 322 317 312 313 311 309 310 311 310 309 309 308 308 308
321 321 321 320 320 318 316 314 314 314 312 312 312 309 310 312 315 315 314 318 321 319 318 317 316 317 315 316 316 315 317 317 316 317 316 316 316 316 317 316 316 317 317 317 317 318 318 316 318 323 322 321 321 319 322 324 321 322 326 326 323 321 322 322 322 322 328 331 323 319 326 331 328 325 324 322 317 316 312 308 308 309 309 309 309 308 308 308
322 321 321 321 320 318 317 316 317 315 313 315 314 311 312 313 315 315 315 319 321 318 319 318 317 318 317 317 317 316 318 318 316 317 316 317 316 316 318 317 316 316 316 317 319 319 320 319 320 322 323 324 322 320 323 322 322 326 325 326 326 321 322 323 322 323 328 330 322 319 324 325 323 323 322 322 321 318 313 311 308 307 308 308 308 308 308 307
322 322 321 320 320 319 318 318 318 318 317 317 315 312 313 314 314 316 317 322 323 318 319 318 316 317 317 317 317 316 317 317 318 318 316 316 316 316 317 316 317 317 316 318 321 319 318 321 323 322 322 323 321 322 324 321 322 325 323 326 328 324 326 327 325 325 326 326 323 321 322 324 325 325 321 318 320 320 316 313 309 307 307 307 307 308 307 307
323 322 321 320 320 320 318 317 318 319 318 317 316 313 313 314 315 318 320 323 323 319 318 318 316 316 317 316 316 316 315 315 317 317 316 315 316 316 316 316 315 317 316 316 321 322 319 318 319 321 322 322 323 325 325 323 321 320 320 326 329 327 329 329 327 327 325 325 325 323 322 324 327 327 321 316 318 321 318 314 310 307 307 307 307 307 306 306
323 322 321 320 320 319 317 316 317 319 318 317 316 314 314 315 317 320 322 323 325 322 316 315 317 316 316 316 316 316 316 315 315 315 315 315 315 315 315 316 314 318 319 317 320 321 317 314 314 319 319 318 321 319 317 321 319 317 323 328 328 328 328 329 327 325 325 325 324 324 323 323 326 325 321 319 320 321 318 317 313 308 306 307 306 307 306 306
323 322 322 320 319 319 318 317 317 318 317 316 316 314 314 317 318 320 322 321 323 323 315 315 317 316 316 317 317 317 316 314 313 315 316 315 315 315 315 317 316 319 321 319 321 320 316 317 316 316 315 315 320 318 315 317 316 319 329 329 326 328 328 327 323 321 325 326 324 324 321 321 325 324 320 319 320 320 319 319 318 310 305 306 306 306 306 306
322 323 323 321 320 320 319 320 319 318 317 317 316 314 316 318 319 322 323 321 323 324 319 318 318 316 316 318 319 318 317 316 313 315 317 316 317 316 315 318 317 320 321 319 321 320 319 321 318 315 314 316 323 323 319 319 319 321 326 325 325 326 326 326 322 321 324 323 320 320 320 320 322 323 321 320 320 320 317 315 315 309 305 306 306 306 306 305
322 322 322 322 320 320 320 321 320 318 317 316 315 315 317 319 321 322 322 323 325 323 320 319 318 317 317 319 319 317 317 318 315 315 316 315 317 316 315 318 317 320 324 320 318 321 322 321 318 317 316 316 320 321 320 321 320 320 321 324 326 325 326 328 325 323 324 323 319 317 319 322 322 322 322 320 317 314 311 310 312 310 309 307 306 306 305 305
322 322 322 322 321 320 321 320 318 318 317 316 315 316 317 320 321 322 322 324 322 319 319 320 319 318 317 319 319 317 317 318 315 315 317 316 318 318 317 318 315 320 327 322 318 321 323 322 320 319 318 317 318 318 321 322 319 318 320 322 324 325 330 330 327 326 327 325 319 315 320 325 326 323 319 313 309 308 308 310 311 310 310 308 306 305 305 304
321 321 321 322 321 321 320 319 318 317 316 314 315 317 318 320 321 321 322 322 320 319 319 319 319 319 319 319 319 317 318 319 315 315 318 317 318 318 317 317 314 317 324 321 320 320 320 323 323 318 315 317 318 317 318 321 320 319 321 322 323 327 329 327 325 323 322 323 319 317 322 325 323 320 313 307 306 307 308 308 308 308 307 306 305 304 304 304
319 320 320 321 321 321 320 319 318 317 315 314 315 317 318 320 321 322 321 320 320 320 319 318 319 320 320 320 320 318 318 321 318 317 318 317 317 317 316 317 315 315 318 319 322 323 320 324 321 315 314 315 316 317 316 319 321 320 320 321 323 325 326 325 324 319 318 323 322 319 322 322 320 319 315 311 310 309 307 306 306 305 305 305 304 304 303 303
318 319 319 320 320 320 319 318 318 317 314 314 316 317 317 320 321 321 319 318 319 319 320 321 320 321 320 320 321 320 319 321 318 317 319 317 317 318 316 317 315 314 316 316 322 326 323 323 319 315 318 314 311 315 315 314 318 321 322 320 320 323 325 326 327 323 322 325 323 321 322 321 321 320 317 313 313 312 311 308 305 303 303 304 303 303 303 303
315 317 318 319 319 320 319 318 317 316 314 314 316 316 317 318 319 319 318 318 319 319 320 322 320 320 321 320 321 321 319 320 318 317 320 318 319 319 316 317 316 314 315 314 319 324 323 323 319 315 318 315 311 315 317 314 314 319 321 318 320 326 325 324 325 325 325 325 325 324 322 320 320 321 319 316 315 315 313 309 306 304 303 302 303 303 302 303
314 316 317 317 318 319 319 318 317 315 314 314 315 316 317 317 317 318 318 318 319 319 319 321 320 320 321 320 321 320 319 320 318 317 320 319 319 319 315 317 318 314 314 314 317 322 322 324 322 314 314 315 314 317 320 318 314 315 316 315 320 324 323 323 324 324 326 326 326 326 323 321 320 320 322 319 315 315 312 309 307 305 303 303 303 303 302 303
314 317 318 317 317 319 319 317 316 315 314 314 314 315 316 317 316 317 318 318 319 320 320 320 321 321 321 321 321 321 319 320 318 317 319 319 319 319 316 317 319 316 314 314 317 320 320 323 322 316 314 316 317 318 320 320 317 316 317 317 318 319 319 322 322 323 327 326 326 326 323 324 322 319 319 318 315 314 311 310 308 304 303 304 303 303 303 303
315 317 317 317 318 319 318 317 316 316 315 313 313 314 314 315 316 316 317 317 318 319 319 321 321 320 321 321 321 321 319 320 319 317 319 318 319 321 319 316 318 318 315 316 318 319 321 324 324 319 315 316 320 319 316 317 318 317 317 318 318 318 319 322 321 322 324 323 326 326 323 324 321 316 318 318 316 314 310 309 308 305 304 304 303 304 304 303
315 316 316 317 318 318 317 316 316 316 316 314 312 313 313 315 316 316 316 316 316 317 318 320 321 320 321 321 322 322 321 320 319 319 319 318 318 322 321 316 316 317 316 317 318 317 322 325 324 322 318 316 318 317 312 313 317 317 317 319 319 317 319 321 322 323 321 321 323 323 323 323 315 313 319 316 312 311 308 307 307 305 305 305 304 304 303 303
314 314 315 316 317 318 317 317 316 316 317 315 312 312 313 314 316 316 316 316 316 316 317 319 320 320 321 321 321 322 321 321 321 319 319 320 319 318 318 317 317 317 317 319 319 317 320 323 323 323 322 317 314 315 314 313 315 317 318 319 318 317 318 320 322 323 323 322 321 320 323 322 313 312 313 307 305 308 307 307 307 306 306 305 304 304 303 303
313 313 315 316 317 317 317 318 318 316 316 315 313 312 312 313 315 316 317 316 316 317 317 318 319 319 320 321 321 322 321 321 322 320 320 322 319 316 315 317 318 318 318 319 319 318 319 323 323 324 325 321 317 318 317 315 315 317 319 317 316 316 317 318 319 320 321 321 321 321 322 320 315 313 312 309 310 310 306 306 307 306 305 305 304 304 303 303
312 313 314 315 317 317 317 318 317 316 315 314 313 312 312 312 313 315 316 316 315 316 317 317 318 318 320 321 322 323 322 320 321 321 320 321 319 314 312 315 317 317 317 317 316 317 320 323 323 322 324 325 323 322 320 317 315 316 317 316 315 316 317 318 319 319 320 320 321 321 321 321 319 317 316 315 315 312 308 306 306 306 306 306 305 304 304 303
312 313 313 314 315 316 316 317 317 316 315 314 313 312 311 311 312 313 315 316 316 315 316 318 318 318 320 321 321 322 322 319 321 323 321 321 322 316 310 311 313 314 314 315 315 319 322 322 322 322 323 323 323 323 320 318 316 316 317 316 316 316 316 317 318 319 320 321 321 319 319 321 321 319 319 317 314 314 312 306 305 306 307 306 305 305 304 303
312 313 314 314 314 314 313 314 316 316 315 314 314 313 312 312 313 314 315 316 317 316 316 318 319 318 320 320 320 321 321 319 320 322 321 321 322 316 309 309 311 311 312 312 313 318 323 321 320 321 321 321 322 321 319 318 318 317 317 316 315 315 316 317 318 318 320 321 321 320 319 320 319 319 320 319 314 314 311 306 305 307 306 306 305 304 304 303
310 311 313 313 315 315 313 312 314 316 316 315 315 315 314 313 314 315 315 315 316 317 318 318 319 318 319 319 319 320 320 319 320 320 320 321 320 317 313 312 310 309 311 311 311 316 321 320 319 320 320 320 320 320 320 319 318 316 316 316 315 315 315 316 317 317 319 320 320 320 321 321 319 318 320 317 312 311 309 306 306 307 306 306 305 304 304 303
308 309 309 311 312 313 313 312 312 314 315 315 316 315 315 314 314 315 315 315 315 316 317 318 318 318 318 318 318 319 319 319 319 319 318 319 319 318 318 317 312 307 309 312 312 313 317 319 319 319 319 320 319 318 319 319 318 317 317 316 315 314 314 315 316 316 317 318 318 318 320 320 318 319 319 315 309 307 306 305 306 307 306 306 305 304 304 303
307 308 308 308 309 309 310 312 312 313 312 313 314 314 315 315 315 315 315 315 315 315 316 318 318 317 318 317 317 318 318 318 319 319 317 317 317 317 318 319 316 310 308 312 314 312 314 318 318 317 318 319 318 317 318 318 318 318 318 317 315 314 313 314 315 315 316 317 316 317 318 318 316 316 314 310 308 307 305 305 306 306 306 305 304 304 304 304
306 307 307 307 307 307 309 311 312 313 312 311 312 313 313 313 314 315 315 314 315 315 315 316 317 317 317 317 317 317 317 316 317 317 316 316 316 316 316 316 317 314 311 311 314 314 314 315 314 315 317 318 317 317 317 317 316 316 317 317 316 315 314 313 313 314 315 316 316 317 317 317 317 316 312 309 307 306 305 304 305 305 306 305 304 304 304 304
305 305 306 306 306 307 308 309 311 312 313 312 312 312 312 311 312 314 315 314 313 314 314 315 316 316 316 316 316 317 316 316 316 315 315 315 314 314 315 313 314 316 313 311 312 313 313 314 314 315 317 318 317 317 317 316 316 317 317 317 316 315 315 314 314 314 314 314 316 316 316 318 320 319 315 313 311 308 306 305 305 305 305 305 305 305 305 305
Wind_Speed
7 7 6 6 6 6 6 6 6 7 7 7 8 8 8 8 9 9 9 8 7 6 5 3 2 1 1 2 2 2 2 1 2 3 1 1 1 2 5 7 7 8 6 4 4 5 6 6 5 4 4 4 5 6 5 5 8 5 2 5 2 0 1 1 1 4 6 5 5 6 5 5 5 4 5 5 7 10 8 7 6 4 4 4 4 4 4 3
7 7 7 6 6 6 6 6 6 6 6 6 7 7 8 8 9 9 9 8 7 6 5 3 2 2 1 2 3 3 2 2 3 2 3 2 2 6 8 9 8 9 9 7 4 5 5 4 2 2 4 2 1 4 4 5 7 4 3 4 1 2 2 2 4 5 6 7 8 6 5 7 7 6 5 2 8 12 8 7 7 6 6 4 3 3 3 4
7 6 7 6 6 6 6 5 5 5 5 6 6 7 7 8 9 9 9 8 7 6 5 4 3 2 1 2 3 4 4 2 1 2 4 3 6 10 10 8 6 7 9 9 5 4 3 3 2 3 4 1 2 3 3 5 5 3 3 4 2 4 4 7 9 9 8 12 11 7 4 6 8 7 6 3 7 8 6 8 7 7 8 6 4 3 3 4
6 6 6 6 6 6 6 5 5 5 5 6 6 6 7 8 9 9 9 8 7 6 5 4 3 2 2 3 3 4 4 1 2 3 5 6 8 9 8 5 3 5 9 9 5 5 4 3 3 3 3 0 2 4 3 5 4 2 3 4 4 3 4 5 8 9 9 11 10 8 4 5 7 6 5 5 5 1 6 11 9 9 10 8 6 4 4 5
6 6 6 6 6 5 5 6 6 6 6 6 7 7 7 7 8 8 8 8 7 6 6 5 3 2 2 3 3 3 3 3 3 5 6 6 7 7 6 3 1 4 8 7 5 6 5 5 4 3 3 1 2 4 2 6 5 3 2 4 3 4 3 2 5 5 5 6 6 6 4 4 6 4 3 6 4 3 10 13 9 9 8 7 7 5 5 7
8 7 6 6 6 6 6 6 6 6 6 7 7 7 7 7 8 8 8 8 7 6 6 5 4 3 3 2 3 2 2 2 4 5 5 5 6 5 4 2 3 5 7 6 4 5 4 4 4 4 2 1 2 3 1 5 6 2 1 4 7 6 5 4 3 3 2 3 3 3 3 4 4 2 3 7 6 6 12 13 9 8 9 9 9 7 8 8
9 8 7 7 6 6 6 6 7 7 7 7 7 7 7 8 8 8 8 7 7 6 6 5 5 4 3 3 2 0 1 3 6 6 4 5 5 4 3 3 4 6 6 4 2 3 3 4 5 5 3 3 3 3 2 3 5 4 0 3 5 5 6 5 2 2 2 2 2 1 2 3 2 1 2 6 6 8 13 11 8 8 10 11 11 10 10 9
9 8 8 7 7 7 6 7 7 8 8 9 9 8 8 8 8 8 8 7 7 7 6 6 5 4 3 3 2 2 2 4 7 5 4 4 3 3 3 4 5 5 3 2 1 3 3 5 6 5 3 3 3 3 3 5 5 4 1 2 2 2 3 4 3 4 5 4 3 3 3 5 4 3 3 7 9 10 12 9 7 8 10 11 12 12 11 9
10 9 9 8 7 7 7 7 7 8 8 9 10 10 10 9 9 9 8 8 8 8 7 7 6 5 3 3 2 2 2 5 6 5 3 3 3 2 3 3 3 2 0 3 3 3 3 5 5 4 3 2 4 3 4 5 2 2 2 3 2 1 2 5 6 7 7 6 6 4 5 8 7 5 4 8 12 11 11 9 8 10 11 12 12 11 10 9
12 11 10 9 9 8 8 8 8 8 8 9 10 11 11 11 10 10 10 9 9 9 8 7 6 5 4 3 3 2 3 7 6 4 4 3 2 1 2 2 2 1 2 6 5 4 3 3 3 3 2 2 4 2 3 3 2 1 2 4 5 6 7 8 9 9 8 8 9 5 4 8 6 4 4 9 14 13 11 10 10 11 12 13 11 11 9 8
14 13 12 11 10 10 10 9 9 9 9 10 10 11 12 11 12 12 11 11 10 10 9 8 7 6 5 5 5 4 5 7 6 4 4 3 0 1 1 1 2 1 2 5 6 4 3 2 1 1 1 3 3 2 3 4 3 2 3 5 8 9 10 10 11 11 9 6 10 9 4 5 3 4 7 12 16 14 13 12 12 13 13 12 11 9 8 7
17 16 15 14 12 12 11 11 11 11 10 11 11 12 12 12 12 12 12 11 11 10 9 8 7 7 6 7 8 6 5 7 6 5 5 3 4 3 2 2 0 1 2 2 4 4 3 2 2 1 2 2 2 2 3 2 1 1 1 3 7 7 7 11 13 14 11 4 9 8 2 5 5 6 7 13 18 15 14 14 14 14 13 12 10 9 8 7
19 18 17 16 15 14 13 13 13 12 11 12 12 12 12 12 12 12 12 11 11 10 9 8 8 7 6 6 8 7 7 9 9 8 8 7 6 5 4 3 3 3 3 2 2 4 4 3 2 1 2 2 1 1 1 0 1 1 1 1 3 6 5 9 11 14 10 4 10 9 1 6 7 7 8 14 18 17 16 16 16 15 14 13 10 10 9 9
21 20 19 18 17 16 15 15 14 12 12 12 12 12 12 12 12 12 12 11 11 10 9 8 8 7 7 6 6 7 9 10 11 11 10 9 7 6 6 5 5 4 4 3 3 3 2 2 2 1 1 1 1 2 0 1 2 1 1 1 1 2 5 6 3 13 8 4 13 10 1 7 7 5 12 16 19 19 18 18 18 17 15 14 12 12 12 11
21 20 19 19 18 17 17 16 14 13 13 13 12 12 11 11 11 11 11 11 10 9 9 8 6 6 6 6 7 9 11 12 13 13 10 10 8 7 7 6 6 6 5 5 4 3 2 3 3 1 2 2 2 2 2 3 1 1 1 3 2 2 5 7 2 13 8 3 11 9 1 7 7 7 15 17 19 20 19 20 19 18 16 15 14 13 13 13
19 19 19 20 19 18 17 17 15 13 13 13 12 12 11 11 10 10 11 10 9 8 7 6 7 6 3 5 8 9 12 14 14 14 13 11 10 9 8 7 7 7 7 5 4 3 4 4 3 3 4 3 3 4 4 4 4 2 2 3 3 3 3 5 1 9 9 5 7 6 3 4 5 9 17 17 21 21 19 20 20 19 18 17 16 15 15 14
17 17 18 18 18 18 17 16 14 12 12 12 11 11 11 10 10 10 10 9 9 8 7 5 5 5 4 6 8 10 14 15 13 12 12 10 10 10 8 8 7 7 5 5 5 4 6 5 4 2 2 1 2 5 4 2 3 3 0 3 4 3 2 2 4 6 8 7 5 6 4 5 5 9 18 20 23 22 20 23 23 22 20 18 17 16 16 14
14 15 16 16 16 16 16 15 12 11 11 11 11 10 10 10 10 9 9 9 9 6 5 7 6 1 7 12 12 12 13 14 13 11 10 10 10 9 7 6 5 6 5 4 5 7 6 4 3 1 1 1 1 5 3 4 4 3 3 2 4 3 2 4 4 4 8 5 5 5 6 10 8 6 16 21 23 24 23 24 24 24 22 20 19 19 17 16
13 14 14 14 14 15 15 13 11 11 11 11 10 10 9 8 8 8 9 10 11 7 3 10 13 4 1 10 15 12 10 11 12 11 11 12 11 9 7 5 5 7 7 4 3 7 8 3 3 2 1 4 5 6 7 8 7 6 5 4 4 4 4 4 4 5 9 5 5 8 7 10 9 8 13 20 24 25 24 20 21 24 23 22 21 21 20 18
13 12 13 13 13 14 13 12 11 11 11 10 10 9 8 6 4 5 10 15 18 15 7 9 16 11 1 4 11 13 10 10 11 12 13 13 13 11 10 8 7 6 5 4 3 6 8 3 2 4 7 8 8 9 9 8 6 5 4 3 4 4 5 4 4 4 6 4 6 9 8 8 9 8 12 20 22 21 21 18 20 25 25 25 24 23 22 20
12 12 12 12 12 12 12 11 11 12 12 11 11 9 7 7 4 3 8 13 19 22 17 11 12 14 8 3 7 11 10 10 11 13 12 14 15 12 11 10 7 3 4 5 4 3 6 4 6 9 10 9 8 8 9 8 7 6 5 5 5 4 5 5 3 3 2 2 6 6 6 9 9 8 11 15 15 18 25 24 23 27 28 28 26 24 23 21
14 14 13 12 12 12 11 12 12 13 13 12 12 11 9 9 8 6 5 7 13 18 22 20 18 18 15 10 9 10 10 9 9 13 14 18 17 12 12 10 5 3 4 4 4 2 4 5 9 12 9 7 6 7 8 8 7 7 5 4 5 4 4 4 3 2 1 2 4 5 5 8 9 8 9 15 18 22 32 32 29 31 31 30 29 27 26 24
17 17 16 15 14 12 12 12 13 15 15 13 13 13 11 9 9 9 5 6 10 15 19 22 24 26 23 16 13 15 14 10 10 16 18 20 19 15 14 10 5 5 4 5 5 4 4 6 11 14 9 6 7 7 6 6 5 6 5 4 4 4 2 3 4 3 2 1 2 4 5 6 8 8 8 17 21 19 24 28 26 28 31 32 30 29 28 27
20 19 18 17 15 14 13 13 15 16 15 15 14 14 13 10 8 7 6 4 7 12 18 21 23 28 29 23 19 20 19 15 14 17 21 23 20 14 13 12 7 5 5 8 10 8 8 7 8 11 10 8 8 7 6 6 4 4 5 6 4 4 5 5 3 2 3 4 2 3 6 6 6 9 10 9 10 9 13 20 21 24 28 29 28 29 28 27
22 21 19 17 16 15 13 15 18 17 15 16 16 16 15 12 8 4 3 3 5 7 11 16 19 24 28 26 22 21 18 18 19 19 22 25 22 12 9 13 9 5 8 10 8 8 10 9 5 6 8 9 8 7 7 7 5 5 5 7 8 7 6 5 1 3 4 5 3 1 2 7 3 6 9 1 3 7 8 14 20 23 25 27 29 30 28 25
23 22 20 19 16 15 15 17 18 16 16 18 16 16 15 12 8 4 1 2 5 3 3 9 12 13 19 23 24 19 10 13 20 23 23 24 24 15 7 9 7 6 9 7 4 4 5 9 9 6 7 8 8 7 7 8 6 4 5 7 9 8 7 6 3 1 2 4 3 3 2 7 6 5 9 4 5 8 8 10 17 21 24 28 31 30 29 27
24 23 22 20 18 18 20 18 16 16 17 16 14 15 14 12 10 5 3 3 5 5 7 8 10 9 12 20 28 19 3 6 14 21 26 24 24 20 9 6 6 6 7 5 4 4 5 10 10 8 8 7 7 6 6 8 7 4 5 5 7 7 7 7 4 3 4 3 4 2 3 5 8 7 8 8 8 8 9 10 14 20 25 27 29 29 29 28
26 25 24 23 21 22 22 18 17 18 16 11 12 16 15 15 12 7 4 1 3 6 6 6 9 10 11 20 32 20 5 11 11 14 27 27 24 17 9 8 8 7 9 8 5 3 4 9 10 10 9 7 6 5 6 9 6 5 4 5 6 6 5 3 4 2 1 2 3 2 3 3 9 6 1 3 7 8 12 14 15 20 25 26 28 29 28 28
29 27 27 25 22 22 22 20 19 18 14 10 11 16 18 17 10 5 2 3 2 4 3 7 8 9 14 20 25 16 8 6 3 12 24 24 23 12 4 8 7 6 9 9 7 2 1 7 10 10 8 7 4 1 4 9 5 4 4 6 6 4 5 5 4 3 3 2 5 5 4 3 9 5 3 2 4 9 12 13 13 19 26 28 30 30 28 28
32 31 29 26 24 25 25 25 23 18 15 13 13 17 20 14 7 4 3 3 1 2 3 7 7 10 17 15 9 7 5 3 5 15 15 12 16 9 2 6 4 3 4 6 5 2 0 3 4 4 4 5 6 4 2 5 8 8 6 7 7 6 5 4 3 5 2 5 6 9 10 6 7 4 5 4 5 8 9 8 7 14 25 30 31 32 30 29
34 32 31 31 30 30 29 31 28 22 19 17 16 22 18 6 2 4 6 1 1 2 4 3 4 9 15 11 5 5 4 1 7 14 8 4 8 5 2 4 2 1 2 5 4 4 3 1 1 1 4 7 8 5 5 2 8 9 5 5 4 4 4 4 4 4 1 7 5 11 12 10 8 6 3 5 6 5 7 7 7 12 23 31 32 33 33 32
35 34 33 34 35 32 32 33 29 23 22 20 24 28 16 2 2 5 3 2 1 4 5 3 4 7 10 9 8 9 5 2 7 10 7 5 6 7 7 7 6 3 4 6 3 3 2 4 2 1 3 6 7 4 4 4 2 5 5 6 4 1 2 2 2 1 4 7 3 7 8 7 10 7 5 8 9 6 7 9 11 15 23 30 33 34 34 35
34 35 34 37 39 37 35 31 27 25 25 27 31 25 10 2 6 7 6 3 1 3 4 4 5 8 11 9 6 7 5 3 7 8 6 6 5 8 7 5 6 4 3 6 4 2 3 5 1 2 2 8 10 6 4 1 3 6 6 7 5 3 1 3 3 2 5 5 4 3 5 3 6 4 8 12 8 6 6 9 13 20 26 31 34 35 34 35
32 34 36 39 41 40 36 32 30 28 28 33 30 16 5 5 5 6 9 7 2 1 2 4 7 8 10 8 5 8 5 2 6 7 4 5 4 6 5 6 8 3 3 4 3 6 5 6 5 7 4 11 12 9 8 5 5 7 5 6 6 5 4 4 4 4 4 3 4 2 3 4 3 2 7 8 4 3 5 8 11 17 24 28 31 33 33 35
28 32 37 40 42 43 41 37 33 29 33 35 20 7 7 8 4 5 8 8 3 1 1 4 8 7 7 5 3 7 5 1 5 6 4 6 5 6 7 7 10 6 4 4 2 4 6 7 7 8 6 13 13 8 8 7 3 4 2 4 4 6 5 3 3 5 3 2 3 2 4 4 4 4 4 2 4 2 2 4 11 16 21 26 29 32 34 35
21 28 37 43 45 46 46 42 36 34 40 33 11 5 10 8 5 6 6 9 8 5 5 4 5 5 6 4 2 6 3 2 5 5 3 5 4 6 7 5 10 11 8 7 2 3 5 5 4 2 2 7 9 6 7 6 4 2 2 4 4 4 5 3 3 1 2 3 4 3 5 5 3 6 3 2 2 2 1 5 12 17 22 27 30 33 35 36
18 23 34 44 48 46 47 46 40 41 43 27 8 8 9 7 7 6 6 11 13 10 8 4 4 6 7 5 4 7 3 2 6 5 3 3 4 8 8 5 10 16 15 10 4 2 5 3 3 2 2 4 2 3 2 1 4 5 4 6 2 2 1 2 1 3 1 4 4 4 7 5 2 5 2 3 3 5 5 6 9 14 21 26 30 34 36 37
19 22 29 37 42 43 46 46 43 45 37 16 8 11 6 6 8 6 6 11 12 12 8 7 6 6 8 7 5 7 7 4 6 6 4 3 5 8 11 7 9 18 22 14 5 3 4 3 4 1 2 2 3 3 0 3 3 5 4 5 4 1 1 3 2 3 2 3 5 3 5 6 7 5 3 5 9 9 9 8 8 12 20 26 29 32 34 36
18 20 24 31 36 38 42 44 47 45 25 7 9 10 5 5 6 5 9 11 11 11 9 8 7 5 7 8 6 7 9 8 8 6 4 5 5 6 12 10 8 16 23 18 8 3 3 3 3 1 1 1 2 2 4 1 1 3 2 2 2 2 3 4 3 3 3 3 5 3 3 5 7 7 8 11 13 13 12 10 10 15 24 29 30 32 35 37
18 14 16 26 29 30 39 45 44 31 12 6 10 7 4 5 6 10 13 9 6 7 8 7 7 6 6 7 7 8 8 7 9 7 5 6 5 4 9 11 7 10 21 21 11 4 2 3 3 2 3 1 2 3 8 9 6 3 3 4 3 2 2 1 2 2 3 2 3 3 7 8 4 4 9 13 14 14 14 13 13 18 27 30 31 34 37 39
20 10 12 21 20 23 37 39 26 14 7 8 10 6 4 4 4 12 18 11 2 1 2 4 6 7 6 7 7 8 7 6 8 7 4 6 6 4 7 14 11 9 13 13 10 6 4 3 3 2 1 4 5 5 7 9 7 6 6 7 8 6 4 2 4 3 4 3 4 3 9 11 4 2 5 9 11 12 15 16 14 20 29 31 32 36 38 40
19 10 12 17 14 21 34 24 10 9 8 8 9 5 4 4 3 8 15 14 6 3 2 0 3 5 5 5 5 6 7 6 7 8 6 8 9 5 7 16 18 15 12 8 9 8 5 3 3 3 3 5 5 4 0 2 3 3 1 3 5 5 6 6 7 5 4 4 3 3 6 9 2 1 2 4 6 10 18 21 17 22 29 32 33 35 36 38
19 16 14 13 14 25 28 11 6 9 5 7 10 5 3 4 3 7 10 11 6 2 3 2 3 6 5 4 5 5 6 6 8 10 7 7 9 6 6 13 16 14 10 5 4 5 4 3 4 3 2 1 2 4 5 4 4 2 2 4 6 7 8 6 4 3 4 6 4 3 6 9 2 1 2 3 6 8 16 23 21 21 25 29 32 34 35 36
20 20 17 11 17 28 21 5 6 9 6 8 8 7 8 6 4 8 10 12 10 5 3 4 4 5 5 3 5 6 7 6 7 10 7 5 6 4 4 10 12 11 8 6 7 9 6 3 4 3 1 2 2 3 3 2 2 3 5 5 7 7 6 3 1 1 4 9 8 5 9 9 1 3 4 5 5 4 10 20 23 21 24 29 32 33 35 36
17 14 16 19 28 34 23 12 10 7 8 11 8 9 12 7 9 15 10 10 14 9 4 5 6 5 3 2 1 2 7 7 5 6 6 4 3 1 2 6 10 10 6 5 10 13 8 3 5 6 6 8 6 4 4 3 3 3 4 6 8 10 11 8 4 4 9 9 8 7 13 8 3 4 5 5 4 3 6 13 19 21 24 29 32 33 35 36
12 6 8 15 26 30 25 23 19 9 7 12 8 9 12 7 10 18 14 10 14 14 9 6 5 5 2 3 3 3 6 4 1 2 4 5 3 1 2 0 3 6 3 3 11 11 4 3 9 11 11 12 9 3 4 6 6 6 8 10 12 13 14 10 6 9 9 2 4 12 14 11 9 5 4 6 5 5 5 8 16 22 25 29 32 34 35 37
8 6 7 8 13 17 14 15 15 9 10 13 7 7 14 13 8 11 14 13 15 18 12 5 6 8 7 8 8 7 7 2 1 2 4 4 3 2 2 2 2 2 2 5 10 8 3 3 11 13 13 14 13 6 6 8 9 11 12 13 14 14 14 13 13 15 7 4 10 15 8 11 17 9 7 10 7 5 7 11 19 24 26 29 31 33 35 37
5 6 10 10 7 7 8 11 12 9 11 14 8 6 13 16 11 9 12 14 14 15 10 4 8 13 14 14 10 7 8 6 4 6 5 4 3 0 1 2 2 1 2 2 4 5 3 5 9 10 12 15 16 11 7 8 7 9 11 14 15 16 17 19 20 19 9 8 17 13 8 15 20 10 9 12 10 13 15 18 21 22 25 28 31 33 36 38
7 7 9 9 4 2 7 13 14 11 10 11 9 9 13 16 17 13 9 8 8 11 12 9 12 16 16 14 10 8 9 9 9 11 10 7 5 3 2 1 1 1 3 2 1 2 3 4 4 6 9 15 18 13 7 7 5 6 9 13 14 18 22 21 20 20 16 15 21 16 11 17 15 7 10 13 15 18 16 15 17 19 24 29 31 34 37 38
9 6 6 6 6 7 9 7 9 8 9 8 6 7 9 14 19 16 10 10 8 10 14 15 17 17 14 12 11 11 14 15 15 14 10 8 5 4 5 5 2 1 1 2 1 0 3 2 1 3 5 13 16 11 7 8 8 8 9 11 14 16 15 15 15 17 15 17 22 19 15 17 10 6 6 8 9 10 8 12 17 20 24 29 31 33 36 38
16 13 8 2 2 5 7 3 5 5 6 6 6 5 5 10 14 12 10 14 15 11 13 19 20 15 11 12 13 17 20 18 14 9 9 13 12 9 8 6 7 5 2 3 3 1 3 2 2 4 4 11 12 9 9 9 7 9 14 20 21 13 8 10 14 14 14 17 19 16 15 15 7 6 4 3 6 8 9 15 18 19 22 27 29 32 34 37
21 21 16 7 2 4 3 2 2 4 4 5 8 9 7 9 12 9 7 11 15 15 15 18 18 10 7 11 17 23 23 16 11 8 9 14 14 11 11 10 11 10 6 4 3 3 5 4 2 4 5 9 6 5 6 5 4 8 15 20 19 13 10 12 13 14 16 15 14 13 14 12 5 6 5 5 6 9 12 16 18 19 22 25 28 30 32 34
Wind_Direction
176 177 180 184 186 187 184 185 186 184 181 181 182 182 182 181 181 182 183 183 185 190 191 195 197 222 290 310 335 347 346 355 318 326 342 284 320 108 115 108 94 79 63 71 110 101 90 72 39 44 29 12 23 17 26 31 23 26 92 80 61 83 48 282 168 153 149 145 169 154 128 141 146 151 145 111 119 127 115 112 115 130 138 127 143 171 195 206
173 172 175 177 180 181 181 183 183 183 181 182 181 180 182 180 182 184 186 191 196 199 202 205 208 226 272 312 326 335 345 329 297 340 24 347 148 132 123 114 94 71 51 42 74 87 96 89 42 52 28 10 38 27 35 26 28 44 93 84 125 179 47 33 108 107 130 143 156 140 106 138 152 152 158 124 128 134 113 103 126 142 139 133 155 196 214 205
178 176 178 179 182 182 183 185 184 187 184 185 185 181 182 182 185 188 193 201 202 206 212 213 219 229 272 314 319 334 348 327 263 25 43 88 135 136 132 118 86 56 38 30 49 75 93 79 39 38 31 73 112 46 36 22 29 34 67 84 235 191 72 54 82 79 116 141 137 129 121 136 148 149 158 146 127 140 146 144 156 160 160 163 169 208 229 216
193 190 190 189 189 187 188 191 194 195 193 193 194 192 192 192 194 197 201 207 208 213 217 218 225 229 276 306 312 334 4 76 136 89 84 109 132 140 142 129 72 31 25 19 41 64 74 77 59 41 25 111 107 68 43 23 23 5 72 140 212 165 88 56 84 75 98 124 123 131 133 127 151 158 167 154 117 145 186 172 184 184 179 177 175 198 213 208
201 204 207 209 206 202 199 200 203 203 204 204 203 203 203 203 206 208 210 213 216 218 221 228 230 238 274 293 310 345 51 100 131 113 104 115 133 148 157 164 278 349 7 10 50 69 61 62 45 31 23 262 105 77 33 19 34 42 74 126 101 88 117 119 107 92 95 108 112 125 122 132 159 171 192 182 172 214 190 180 186 191 195 196 195 196 193 192
199 202 207 217 221 222 221 217 216 215 216 214 214 212 210 214 215 216 218 219 223 224 228 231 232 246 261 276 308 348 74 121 156 137 119 130 141 152 168 204 275 321 343 358 55 75 56 44 13 347 11 78 115 105 77 21 38 72 50 71 64 72 133 151 128 126 127 119 108 116 138 149 162 228 229 198 198 195 182 178 180 195 211 219 214 197 186 181
202 203 204 210 216 222 229 231 232 230 229 226 224 221 219 221 221 221 223 224 227 228 232 233 237 245 250 272 293 283 122 152 164 161 152 152 164 183 205 259 286 310 329 354 41 81 58 32 8 353 32 64 80 98 84 32 50 87 16 30 56 72 126 156 173 165 208 182 155 131 177 198 196 224 212 187 189 187 181 182 190 203 208 211 205 189 185 181
209 213 214 216 220 223 227 232 237 238 238 237 234 231 227 227 227 227 226 228 231 231 234 235 238 239 246 264 245 233 225 166 162 162 169 175 197 229 259 288 302 311 326 27 61 93 64 38 28 18 51 62 53 70 54 37 47 77 58 357 34 64 149 193 221 220 243 229 206 237 235 238 239 240 234 194 188 187 187 191 196 199 198 194 189 183 185 186
219 220 222 226 232 236 239 241 243 244 244 242 240 239 237 235 233 232 231 231 231 232 235 235 240 243 248 248 231 249 202 167 171 164 161 184 207 255 293 314 327 318 30 112 115 123 95 55 50 46 59 48 46 72 61 49 39 66 70 6 354 276 226 222 228 229 242 238 224 242 252 256 258 254 259 214 196 192 190 192 192 194 191 183 182 182 183 190
226 226 227 230 234 242 248 251 253 254 253 249 245 242 242 240 238 237 235 234 233 234 235 236 240 240 242 229 208 220 176 162 171 168 156 164 178 323 344 360 2 320 113 123 134 139 124 85 61 57 59 35 44 71 54 74 139 41 30 339 302 273 269 238 225 231 236 238 229 216 241 266 254 218 234 207 193 193 190 186 188 191 187 182 184 185 183 193
229 231 232 233 235 241 247 253 257 259 260 257 250 244 242 241 240 239 237 236 236 236 236 238 239 239 240 223 207 195 170 169 175 178 168 161 182 326 324 360 32 75 128 135 144 152 144 151 162 81 66 47 39 54 58 89 130 36 360 324 292 282 283 247 223 226 218 229 225 206 235 279 216 206 233 203 191 196 194 186 187 192 190 185 187 191 193 202
234 235 237 237 239 241 245 250 252 256 260 260 256 249 242 239 239 240 238 237 237 239 240 242 240 236 235 233 232 221 190 187 189 195 197 234 290 279 265 271 267 136 169 153 142 155 162 168 163 97 88 95 34 48 69 85 104 19 7 323 298 321 304 244 226 215 199 197 204 185 308 297 217 224 233 198 188 190 193 188 187 193 196 191 192 199 204 215
238 239 241 242 242 242 243 246 248 251 254 257 257 252 245 239 236 236 236 236 237 240 241 243 245 240 234 238 242 228 216 216 216 221 235 263 276 262 250 239 227 192 193 205 141 152 159 156 161 124 100 103 62 107 131 247 105 289 282 134 311 352 324 250 227 203 186 173 177 161 314 278 250 232 194 183 184 182 184 185 187 194 199 198 199 205 211 220
239 242 243 244 244 244 243 245 246 247 248 251 252 250 246 238 236 234 233 234 234 237 239 241 245 243 235 236 243 229 223 227 232 238 245 252 255 253 250 232 223 215 204 202 175 172 183 182 200 202 154 123 109 123 360 357 129 261 352 65 13 351 290 294 203 173 167 178 170 146 219 257 277 232 179 180 184 183 184 183 188 196 200 204 205 207 214 218
238 240 242 244 246 245 246 246 245 244 244 245 244 244 241 237 237 235 232 232 230 230 231 234 237 237 235 238 240 231 227 230 236 239 239 243 249 251 244 225 214 208 199 205 210 230 229 202 199 154 130 137 111 91 17 1 360 58 51 318 328 167 264 313 152 165 161 185 172 145 206 260 277 207 180 181 184 188 189 186 192 198 201 205 208 210 214 216
236 237 238 242 245 246 247 247 244 241 240 240 239 236 234 233 232 233 232 229 227 226 221 222 219 216 237 250 236 227 228 230 233 236 237 242 246 240 228 218 212 207 206 214 224 222 200 184 164 136 133 137 113 87 48 12 338 351 138 246 266 182 266 319 238 188 164 138 182 187 203 262 272 192 183 187 187 191 193 192 197 201 204 205 208 214 214 215
234 234 237 240 243 245 245 246 244 237 235 235 233 231 232 231 228 229 227 222 218 212 208 209 208 217 244 242 231 228 227 227 228 229 232 234 231 228 219 210 207 207 208 205 202 189 185 174 151 149 142 129 116 96 64 3 304 312 196 233 247 205 225 279 288 229 168 142 195 219 227 248 264 188 188 196 194 194 198 200 201 202 206 206 207 213 215 218
232 233 237 239 241 243 243 245 241 231 232 231 229 228 227 229 229 225 222 218 206 190 204 201 177 223 250 228 223 230 228 224 225 221 218 215 214 215 207 203 199 186 175 180 187 175 172 162 138 129 23 349 180 120 130 216 208 214 188 214 258 250 228 219 261 224 168 161 198 205 239 250 265 218 200 203 199 201 206 206 204 202 204 204 205 208 212 218
231 230 233 236 238 241 242 240 234 231 231 230 229 226 221 221 223 226 220 207 190 173 201 203 188 168 247 217 216 226 226 214 214 212 207 204 202 196 180 173 172 163 155 156 192 177 161 112 89 108 202 217 210 172 188 204 183 183 182 172 200 234 263 234 245 215 168 172 221 208 225 243 249 241 216 209 204 207 215 213 206 202 202 203 204 207 209 214
234 229 229 231 235 239 241 235 230 231 232 231 227 218 211 197 191 229 218 211 211 212 215 201 201 208 171 171 202 209 203 191 198 202 198 196 192 177 159 151 153 156 160 157 184 182 162 140 153 193 208 209 208 199 205 209 194 207 220 223 208 212 264 261 260 244 163 164 240 222 226 246 243 241 228 214 205 210 218 218 208 201 202 204 203 204 206 210
239 232 228 227 231 236 238 233 229 230 232 230 219 207 196 183 177 230 218 226 235 232 233 226 214 223 232 226 207 200 183 173 189 196 188 186 182 171 164 158 145 178 214 164 132 149 161 186 218 216 215 205 204 206 213 222 225 239 240 250 254 227 250 258 247 262 147 173 259 251 246 260 251 244 233 208 196 211 215 213 210 204 204 206 204 202 202 206
242 240 237 230 227 231 232 230 230 230 231 229 219 211 207 201 209 227 234 261 258 242 238 235 232 233 233 233 226 206 185 168 182 190 179 176 178 178 173 161 148 195 201 139 101 126 190 230 233 224 217 204 217 220 217 221 223 234 232 229 251 249 261 293 312 322 39 180 258 293 280 265 261 253 231 204 201 215 216 213 213 208 204 204 202 200 200 202
243 244 245 240 233 230 229 228 228 227 228 228 223 217 216 215 217 232 253 284 277 256 240 232 230 229 223 220 216 205 198 186 184 186 177 173 179 185 173 159 176 187 162 153 155 173 208 242 236 222 208 200 228 240 233 233 225 219 212 195 235 250 235 273 297 296 308 227 248 308 302 272 267 267 244 219 216 221 220 218 220 215 210 207 205 204 204 205
244 242 243 244 240 234 231 227 224 225 225 226 227 221 218 215 214 237 257 275 283 262 248 239 232 228 221 216 212 208 210 209 199 188 182 179 176 180 180 175 175 172 187 193 186 196 214 228 220 199 197 201 216 237 232 225 244 233 198 184 205 221 210 227 268 311 340 336 304 328 313 279 253 252 256 235 217 222 217 215 219 220 216 211 207 207 210 212
241 241 240 238 236 234 229 223 222 225 226 225 227 222 217 210 202 228 258 282 283 264 256 241 233 234 226 217 212 210 214 221 216 204 194 191 184 173 183 188 178 181 206 200 195 222 232 227 203 167 194 208 208 226 214 192 221 257 224 198 198 205 216 218 136 55 2 321 284 98 304 281 272 248 258 255 169 214 209 206 211 211 209 207 205 205 207 211
238 237 236 233 230 222 213 220 227 228 226 227 226 216 212 201 179 177 144 350 285 230 194 207 213 226 216 206 199 196 219 234 221 215 209 205 200 189 173 184 188 201 197 185 203 239 217 204 202 178 186 202 209 226 217 183 181 244 241 202 200 209 218 213 186 144 262 265 271 112 164 273 292 258 248 216 188 218 215 213 212 203 200 202 202 202 202 205
235 233 232 230 225 215 211 222 230 224 224 231 225 208 198 182 164 144 97 1 282 183 149 178 186 187 194 192 186 183 223 195 190 208 204 200 201 197 192 187 184 198 174 152 234 254 154 175 196 193 185 196 205 220 218 175 157 232 246 176 181 202 212 213 193 200 226 257 315 45 125 278 279 255 239 207 200 230 232 229 221 206 200 198 199 201 202 205
231 230 231 228 225 225 224 231 232 227 231 234 217 201 183 168 161 135 103 302 250 144 142 174 167 172 177 179 182 177 134 139 150 192 190 189 196 197 211 201 179 189 174 163 221 264 146 172 186 185 188 202 201 207 190 159 154 241 227 126 137 168 167 141 122 150 316 351 306 267 121 280 271 259 266 187 202 236 239 230 224 211 202 196 196 200 202 206
228 226 228 227 227 228 225 226 229 233 233 215 195 188 173 162 152 108 105 231 194 112 138 165 157 164 158 165 182 175 124 118 125 174 179 186 193 192 221 207 184 181 195 203 214 230 168 188 184 175 188 206 191 152 167 166 177 205 141 85 68 69 75 76 93 92 31 322 237 206 162 239 270 250 117 110 217 232 237 234 225 210 204 201 198 198 199 201
229 223 223 220 218 218 216 219 225 227 215 194 180 173 165 157 130 105 183 213 176 95 127 156 166 166 155 155 183 169 122 61 112 152 167 182 189 189 165 187 176 137 213 256 238 227 22 181 190 179 182 173 141 72 39 173 164 130 92 61 47 26 33 43 50 81 50 277 221 188 181 192 274 270 156 179 221 216 225 236 221 199 200 204 203 201 200 199
237 226 219 215 214 215 215 217 221 216 197 183 173 162 157 153 110 167 198 198 17 145 126 150 174 157 156 156 172 164 128 64 139 149 158 165 178 185 127 159 174 78 277 279 281 316 350 154 223 186 142 120 107 69 20 76 138 119 88 85 72 354 14 22 3 63 193 259 210 188 187 184 232 264 194 229 258 228 213 217 207 190 195 201 203 204 203 202
245 236 225 218 218 220 224 227 226 209 188 178 168 159 151 163 237 210 203 70 354 194 158 172 183 160 163 167 179 174 148 160 173 164 170 167 174 191 189 186 175 164 250 234 246 318 284 232 226 116 154 146 122 92 21 9 87 112 108 117 124 288 8 4 312 122 226 258 243 189 181 200 235 250 243 254 266 246 224 226 215 194 192 197 199 201 203 202
243 242 234 224 220 222 228 233 225 203 184 172 164 156 148 206 207 208 206 186 209 196 154 150 163 163 164 171 191 177 159 178 179 176 178 167 185 210 220 228 195 182 205 191 189 206 265 291 221 111 262 189 164 158 172 243 192 163 143 145 166 173 175 249 241 249 253 268 285 184 162 234 272 268 242 246 252 239 255 263 232 206 199 198 197 198 199 200
240 241 238 229 226 226 227 226 217 201 182 169 162 155 176 215 195 189 207 221 236 112 142 135 144 160 172 183 189 166 165 212 168 160 157 152 182 219 232 247 226 207 90 147 186 182 218 283 199 181 201 183 185 191 173 142 164 185 156 145 169 164 173 213 204 222 251 276 289 228 159 202 217 255 248 254 277 274 286 272 225 207 204 197 193 193 194 196
239 240 237 232 229 226 225 221 212 198 179 167 159 161 191 202 202 188 203 216 208 106 98 125 130 154 195 214 200 176 177 204 167 154 162 178 193 203 203 217 209 182 126 184 236 163 204 262 223 196 174 169 186 192 143 117 151 215 133 121 186 185 180 221 210 184 179 280 281 211 218 221 207 253 261 285 312 337 341 208 183 186 189 186 186 189 192 194
232 233 230 230 229 225 220 215 208 194 176 165 160 204 199 204 197 178 186 190 186 150 110 118 127 154 202 222 233 206 186 108 159 168 198 203 216 207 199 207 195 188 184 187 192 145 188 276 274 187 132 175 190 176 148 159 184 178 145 180 204 174 164 213 275 52 101 262 263 193 243 287 303 267 234 132 292 319 43 175 174 178 178 179 185 188 191 194
227 229 227 226 229 226 217 212 207 192 177 170 182 200 200 218 194 174 179 179 177 160 141 169 184 169 185 201 212 201 179 108 163 178 194 195 237 214 202 210 191 194 204 198 203 194 170 256 287 134 164 234 209 124 112 122 132 131 182 204 164 69 101 147 257 344 43 260 266 205 236 258 247 264 263 126 229 252 244 209 181 179 179 183 188 190 193 194
230 237 237 232 232 228 218 211 203 189 178 176 210 204 200 210 196 185 176 171 169 165 172 203 193 170 181 192 200 185 175 175 175 183 187 188 243 209 188 202 194 197 207 203 215 253 168 218 286 87 180 279 36 114 138 10 90 131 181 191 138 125 219 139 174 236 206 252 276 257 250 239 209 219 216 200 215 222 224 212 193 190 190 192 192 191 192 193
231 235 244 242 236 230 223 211 195 184 179 184 211 209 203 189 195 194 178 176 175 175 193 207 187 179 189 181 174 174 183 184 169 174 190 192 233 203 177 190 200 198 199 193 201 237 170 203 262 345 313 323 38 156 183 198 43 57 76 174 143 139 180 166 173 189 174 232 273 301 299 251 215 194 189 200 210 208 205 202 203 203 199 196 193 190 191 194
221 227 249 242 235 233 225 209 192 183 182 204 207 204 173 161 189 208 206 197 172 180 203 200 180 187 194 180 170 172 187 189 172 182 206 192 212 230 185 182 186 190 190 189 194 191 156 216 224 324 333 201 184 198 183 182 183 153 151 184 188 145 131 180 213 157 138 193 247 277 280 265 228 180 189 197 206 206 200 198 205 207 203 199 195 193 194 196
212 226 255 235 232 231 214 201 193 192 194 206 215 214 184 155 167 209 222 232 232 204 208 182 185 189 179 181 183 174 178 188 182 191 216 202 207 243 201 187 178 168 174 186 200 193 187 202 173 171 249 208 225 238 204 190 182 176 185 190 187 175 149 188 245 207 154 198 197 201 270 268 230 167 204 199 206 208 199 199 205 205 203 200 198 198 198 198
208 227 246 225 219 208 197 192 197 202 199 207 217 213 178 184 172 193 217 230 244 314 337 328 200 197 187 186 182 165 167 183 193 195 211 213 206 210 206 195 182 165 159 178 203 192 158 123 161 203 212 208 237 271 172 138 119 112 178 187 176 181 177 187 226 216 175 225 212 133 272 272 221 127 253 224 243 231 206 202 205 206 203 200 199 200 200 200
210 226 234 228 218 197 188 192 214 201 214 215 208 204 181 201 179 160 192 214 216 220 235 244 183 190 213 196 172 169 171 185 203 201 208 219 212 215 217 200 183 167 164 180 195 169 132 134 189 231 319 346 316 354 21 42 75 91 226 187 176 203 203 192 211 188 170 221 204 142 255 263 265 332 307 321 300 261 215 206 205 204 201 199 199 199 199 200
217 227 226 225 216 198 186 197 206 200 224 211 200 209 212 232 211 177 184 196 197 189 194 216 193 191 217 200 176 181 178 191 217 209 206 210 209 216 212 201 190 176 179 194 181 168 167 171 161 166 295 321 349 348 343 2 141 198 227 199 190 206 205 215 261 141 226 226 187 177 242 247 300 343 345 3 337 288 221 212 208 202 196 196 198 198 199 199
214 228 224 217 205 195 194 208 201 195 212 208 209 202 203 230 227 213 208 190 194 199 189 215 212 186 190 182 139 174 191 206 228 218 213 212 207 158 132 200 201 192 203 214 178 167 164 169 160 168 210 224 223 220 210 189 172 209 226 193 196 200 195 211 228 208 237 227 167 197 242 252 343 348 332 334 320 285 231 211 207 204 200 197 196 196 197 197
199 206 219 219 211 206 210 213 205 195 195 202 213 200 197 214 220 218 220 199 195 201 203 214 196 166 159 170 174 210 215 220 213 192 205 203 216 343 37 120 191 187 186 135 154 156 137 184 189 192 208 221 228 212 148 141 155 197 210 196 202 207 198 201 218 222 227 198 184 224 237 260 280 280 280 278 254 245 244 205 199 203 202 198 196 196 196 197
199 190 184 195 222 231 234 223 212 203 186 187 186 183 197 208 211 207 210 208 201 199 206 212 178 180 189 190 200 215 210 195 98 180 196 184 210 300 358 45 68 144 119 121 148 149 110 198 202 204 214 228 242 234 148 147 177 199 204 201 206 208 200 200 217 223 194 118 244 237 207 247 259 240 230 249 235 236 245 215 206 204 199 196 194 194 196 197
230 227 205 186 193 224 229 223 217 206 193 189 180 173 192 203 208 194 197 212 209 198 199 206 198 205 204 196 201 210 203 205 216 218 212 180 174 299 10 28 40 95 70 92 141 129 140 213 212 208 221 237 249 244 188 173 198 201 201 208 208 202 203 207 218 224 195 189 245 242 174 228 251 238 222 229 212 215 222 214 210 203 195 193 191 192 195 196
241 267 255 234 225 258 247 225 208 203 205 193 188 198 194 197 206 201 188 196 206 200 197 202 212 215 211 202 198 203 204 204 215 225 220 196 173 155 176 246 309 46 68 89 105 107 161 225 211 192 226 245 249 244 206 187 211 216 210 215 213 208 209 210 217 225 217 219 243 246 224 239 249 223 224 232 219 218 219 213 208 197 192 192 190 193 195 196
225 247 273 268 268 290 291 244 186 191 212 196 194 216 204 200 204 203 190 177 182 196 199 209 220 214 208 204 200 213 218 209 215 223 206 194 203 185 195 205 165 91 78 120 77 41 187 226 70 124 229 255 251 243 217 208 225 238 239 234 226 219 215 216 224 228 223 229 242 246 249 257 245 176 213 246 221 206 197 200 204 199 195 192 190 194 197 199
239 242 250 295 297 264 278 264 159 177 210 196 198 210 209 215 208 199 196 194 193 195 192 207 221 216 203 203 205 222 228 219 224 228 185 190 205 196 199 195 151 141 158 154 147 153 178 213 39 104 214 255 250 229 219 224 230 246 255 247 234 221 206 217 227 225 218 227 238 241 248 255 238 143 152 189 171 176 193 202 202 200 198 194 193 198 201 203
243 245 245 248 256 220 229 284 204 198 202 190 198 197 193 211 208 197 204 205 207 213 208 209 219 216 196 204 213 227 234 229 234 238 202 202 206 194 196 193 166 162 169 154 153 163 161 174 176 157 214 257 251 180 186 207 216 236 248 245 233 215 208 223 232 230 222 221 228 233 238 242 212 144 168 179 164 180 202 208 206 202 198 197 201 205 207 209